Skip Page Navigation
NASA JPL Caltech
NASA Logo - Jet Propulsion Laboratory + View the NASA Portal
+ Center for Near-Earth Object Studies
JPL Home Earth Solar System Stars & Galaxies Technology
JPL Solar System Dynamics
BODIES ORBITS EPHEMERIDES TOOLS PHYSICAL DATA DISCOVERY FAQ SITE MAP
IMPORTANT: The SSD Announcement email list is now available. Major changes are coming in the near future, including possible hostname and/or URL changes. To be notified of such changes, subscribe to this email list.

Please visit this page for more details.


JPL Small-Body Database Browser
Search: [ help ]  
382692 (2002 VT60)
Classification: Main-belt Asteroid          SPK-ID: 2382692
Ephemeris | Orbit Diagram | Orbital Elements | Mission Design | Physical Parameters | Discovery Circumstances ]

[ show orbit diagram ]
Orbital Elements at Epoch 2458600.5 (2019-Apr-27.0) TDB
Reference: JPL 10 (heliocentric ecliptic J2000)
 Element Value Uncertainty (1-sigma)   Units 
e .1879191246654156 6.401e-08  
a 2.351738302352446 2.3315e-08 au
q 1.909801699132244 1.5678e-07 au
i 2.491727575345587 8.5121e-06 deg
node 6.334106448175156 0.0001792 deg
peri 31.44245469423293 0.00018172 deg
M 210.9149582835825 3.5014e-05 deg
tp 2459146.023527911784
(2020-Oct-23.52352791)
0.00013433 TDB
period 1317.291579270595
3.61
1.959e-05
5.363e-08
d
yr
n .2732880143357005 4.0641e-09 deg/d
Q 2.793674905572648 2.7697e-08 au
  Orbit Determination Parameters
   # obs. used (total)      105  
   data-arc span      6067 days (16.61 yr)  
   first obs. used      2002-10-30  
   last obs. used      2019-06-10  
   planetary ephem.      DE431  
   SB-pert. ephem.      SB431-N16  
   condition code      0  
   norm. resid. RMS      .54767  
   source      ORB  
   producer      Otto Matic  
   solution date      2019-Sep-24 06:59:52  

Additional Information
 Earth MOID = .917031 au 
 Jupiter MOID = 2.62845 au 
 T_jup = 3.532 
[ show covariance matrix ]

Ephemeris | Orbit Diagram | Orbital Elements | Mission Design | Physical Parameters | Discovery Circumstances ]

Physical Parameter Table
Parameter Symbol Value Units Sigma Reference Notes
absolute magnitude H 17.6   n/a MPO437566  

382692 (2002 VT60)          Discovered 2002-Nov-04 by NEAT at Palomar
Reference: Last Updated: 2014-01-21

Alternate Designations
 2002 VT60 = 2009 QW52 
Ephemeris | Orbit Diagram | Orbital Elements | Mission Design | Physical Parameters | Discovery Circumstances ]
ABOUT SSD CREDITS/AWARDS PRIVACY/COPYRIGHT GLOSSARY LINKS
FirstGov
(server date/time)  
NASA Home Page
Site Manager:   Ryan S. Park
Webmaster  Alan B. Chamberlin